<?xml version="1.0" encoding="UTF-8" standalone="no" ?>
<gpx xmlns="http://www.topografix.com/GPX/1/1" xmlns:xsi="http://www.w3.org/2001/XMLSchema-instance" xsi:schemaLocation="http://www.topografix.com/GPX/1/1 http://www.topografix.com/GPX/1/1/gpx.xsd" version="1.1" creator="VisuGPX - https://www.visugpx.com">
  <metadata>
    <name>Rando Vosges petit ballon - 3jours revisité</name>
  </metadata>
  <trk>
    <name><![CDATA[Rando Vosges petit ballon - 3jours revisité_1]]></name>
    <trkseg>
      <trkpt lat="48.08683" lon="7.06301">
        <ele>1062.6</ele>
        <time>2021-09-26T17:38:58Z</time>
      </trkpt>
      <trkpt lat="48.08604" lon="7.0637">
        <ele>1052</ele>
        <time>2021-09-26T17:41:00Z</time>
      </trkpt>
      <trkpt lat="48.08591" lon="7.06234">
        <ele>1064</ele>
        <time>2021-09-26T17:43:03Z</time>
      </trkpt>
      <trkpt lat="48.08544" lon="7.0612">
        <ele>1068</ele>
        <time>2021-09-26T17:45:02Z</time>
      </trkpt>
      <trkpt lat="48.08504" lon="7.06005">
        <ele>1075</ele>
        <time>2021-09-26T17:46:58Z</time>
      </trkpt>
      <trkpt lat="48.08408" lon="7.06013">
        <ele>1069</ele>
        <time>2021-09-26T17:49:06Z</time>
      </trkpt>
      <trkpt lat="48.08365" lon="7.05869">
        <ele>1076</ele>
        <time>2021-09-26T17:51:27Z</time>
      </trkpt>
      <trkpt lat="48.08297" lon="7.05844">
        <ele>1071</ele>
        <time>2021-09-26T17:53:00Z</time>
      </trkpt>
      <trkpt lat="48.0824" lon="7.0575">
        <ele>1101</ele>
        <time>2021-09-26T17:54:54Z</time>
      </trkpt>
      <trkpt lat="48.08126" lon="7.05713">
        <ele>1122</ele>
        <time>2021-09-26T17:57:29Z</time>
      </trkpt>
      <trkpt lat="48.08067" lon="7.05816">
        <ele>1115</ele>
        <time>2021-09-26T17:59:30Z</time>
      </trkpt>
      <trkpt lat="48.08015" lon="7.05822">
        <ele>1126</ele>
        <time>2021-09-26T18:00:40Z</time>
      </trkpt>
      <trkpt lat="48.07938" lon="7.05749">
        <ele>1132</ele>
        <time>2021-09-26T18:02:41Z</time>
      </trkpt>
      <trkpt lat="48.07824" lon="7.0518">
        <ele>1178</ele>
        <time>2021-09-26T18:11:31Z</time>
      </trkpt>
      <trkpt lat="48.07643" lon="7.04899">
        <ele>1162</ele>
        <time>2021-09-26T18:17:19Z</time>
      </trkpt>
      <trkpt lat="48.07607" lon="7.04635">
        <ele>1149</ele>
        <time>2021-09-26T18:21:19Z</time>
      </trkpt>
      <trkpt lat="48.07653" lon="7.04272">
        <ele>1145</ele>
        <time>2021-09-26T18:26:49Z</time>
      </trkpt>
      <trkpt lat="48.07549" lon="7.04146">
        <ele>1118</ele>
        <time>2021-09-26T18:29:47Z</time>
      </trkpt>
      <trkpt lat="48.07412" lon="7.04121">
        <ele>1105</ele>
        <time>2021-09-26T18:32:51Z</time>
      </trkpt>
      <trkpt lat="48.07223" lon="7.03947">
        <ele>1105</ele>
        <time>2021-09-26T18:37:47Z</time>
      </trkpt>
      <trkpt lat="48.07172" lon="7.03861">
        <ele>1101</ele>
        <time>2021-09-26T18:39:30Z</time>
      </trkpt>
      <trkpt lat="48.07201" lon="7.03716">
        <ele>1114</ele>
        <time>2021-09-26T18:41:45Z</time>
      </trkpt>
      <trkpt lat="48.07246" lon="7.03538">
        <ele>1133</ele>
        <time>2021-09-26T18:44:35Z</time>
      </trkpt>
      <trkpt lat="48.07239" lon="7.03368">
        <ele>1141</ele>
        <time>2021-09-26T18:47:07Z</time>
      </trkpt>
      <trkpt lat="48.07226" lon="7.03286">
        <ele>1157</ele>
        <time>2021-09-26T18:48:22Z</time>
      </trkpt>
      <trkpt lat="48.07199" lon="7.0325">
        <ele>1162</ele>
        <time>2021-09-26T18:49:10Z</time>
      </trkpt>
      <trkpt lat="48.07175" lon="7.03241">
        <ele>1162</ele>
        <time>2021-09-26T18:49:43Z</time>
      </trkpt>
      <trkpt lat="48.07144" lon="7.03231">
        <ele>1167</ele>
        <time>2021-09-26T18:50:25Z</time>
      </trkpt>
      <trkpt lat="48.07051" lon="7.03208">
        <ele>1182</ele>
        <time>2021-09-26T18:52:31Z</time>
      </trkpt>
      <trkpt lat="48.07027" lon="7.03309">
        <ele>1163</ele>
        <time>2021-09-26T18:54:07Z</time>
      </trkpt>
      <trkpt lat="48.06996" lon="7.03404">
        <ele>1135</ele>
        <time>2021-09-26T18:55:41Z</time>
      </trkpt>
      <trkpt lat="48.0687" lon="7.03244">
        <ele>1173</ele>
        <time>2021-09-26T18:59:21Z</time>
      </trkpt>
      <trkpt lat="48.06787" lon="7.03262">
        <ele>1151</ele>
        <time>2021-09-26T19:01:13Z</time>
      </trkpt>
      <trkpt lat="48.06729" lon="7.0334">
        <ele>1130</ele>
        <time>2021-09-26T19:02:57Z</time>
      </trkpt>
      <trkpt lat="48.06651" lon="7.03403">
        <ele>1123</ele>
        <time>2021-09-26T19:04:56Z</time>
      </trkpt>
      <trkpt lat="48.06596" lon="7.03469">
        <ele>1127</ele>
        <time>2021-09-26T19:06:30Z</time>
      </trkpt>
      <trkpt lat="48.06557" lon="7.03603">
        <ele>1121</ele>
        <time>2021-09-26T19:08:40Z</time>
      </trkpt>
      <trkpt lat="48.0648" lon="7.03618">
        <ele>1131</ele>
        <time>2021-09-26T19:10:24Z</time>
      </trkpt>
      <trkpt lat="48.06522" lon="7.0349">
        <ele>1146</ele>
        <time>2021-09-26T19:12:31Z</time>
      </trkpt>
      <trkpt lat="48.06611" lon="7.03276">
        <ele>1170</ele>
        <time>2021-09-26T19:16:16Z</time>
      </trkpt>
      <trkpt lat="48.06495" lon="7.03371">
        <ele>1171</ele>
        <time>2021-09-26T19:19:12Z</time>
      </trkpt>
      <trkpt lat="48.06495" lon="7.03294">
        <ele>1185</ele>
        <time>2021-09-26T19:20:21Z</time>
      </trkpt>
      <trkpt lat="48.06452" lon="7.03245">
        <ele>1167</ele>
        <time>2021-09-26T19:21:33Z</time>
      </trkpt>
      <trkpt lat="48.06496" lon="7.03171">
        <ele>1200</ele>
        <time>2021-09-26T19:23:01Z</time>
      </trkpt>
      <trkpt lat="48.06574" lon="7.03187">
        <ele>1206</ele>
        <time>2021-09-26T19:24:46Z</time>
      </trkpt>
      <trkpt lat="48.06521" lon="7.03113">
        <ele>1211</ele>
        <time>2021-09-26T19:26:23Z</time>
      </trkpt>
      <trkpt lat="48.06579" lon="7.02802">
        <ele>1229</ele>
        <time>2021-09-26T19:31:11Z</time>
      </trkpt>
      <trkpt lat="48.0641" lon="7.02373">
        <ele>1149</ele>
        <time>2021-09-26T19:38:35Z</time>
      </trkpt>
      <trkpt lat="48.06402" lon="7.02354">
        <ele>1147.6</ele>
      </trkpt>
      <trkpt lat="48.06386" lon="7.02379">
        <ele>1148.5</ele>
      </trkpt>
      <trkpt lat="48.06366" lon="7.02382">
        <ele>1147.7</ele>
      </trkpt>
      <trkpt lat="48.06377" lon="7.02293">
        <ele>1144.2</ele>
      </trkpt>
      <trkpt lat="48.0636" lon="7.02292">
        <ele>1144.9</ele>
      </trkpt>
      <trkpt lat="48.06345" lon="7.02304">
        <ele>1146.2</ele>
      </trkpt>
      <trkpt lat="48.06324" lon="7.02353">
        <ele>1149</ele>
      </trkpt>
      <trkpt lat="48.06305" lon="7.02319">
        <ele>1152.6</ele>
      </trkpt>
      <trkpt lat="48.06285" lon="7.02332">
        <ele>1157.1</ele>
      </trkpt>
      <trkpt lat="48.06228" lon="7.02365">
        <ele>1166.1</ele>
      </trkpt>
      <trkpt lat="48.06194" lon="7.02404">
        <ele>1170.5</ele>
      </trkpt>
      <trkpt lat="48.06144" lon="7.02412">
        <ele>1179.7</ele>
      </trkpt>
      <trkpt lat="48.06101" lon="7.02418">
        <ele>1188.2</ele>
      </trkpt>
      <trkpt lat="48.06049" lon="7.02396">
        <ele>1192.9</ele>
      </trkpt>
      <trkpt lat="48.05996" lon="7.0237">
        <ele>1196.1</ele>
      </trkpt>
      <trkpt lat="48.05927" lon="7.02349">
        <ele>1196.7</ele>
      </trkpt>
      <trkpt lat="48.05857" lon="7.02308">
        <ele>1207.1</ele>
      </trkpt>
      <trkpt lat="48.05799" lon="7.02303">
        <ele>1217.4</ele>
      </trkpt>
      <trkpt lat="48.05738" lon="7.02382">
        <ele>1223.2</ele>
      </trkpt>
      <trkpt lat="48.05657" lon="7.02427">
        <ele>1236.8</ele>
      </trkpt>
      <trkpt lat="48.0561" lon="7.02398">
        <ele>1241.9</ele>
      </trkpt>
      <trkpt lat="48.05528" lon="7.02306">
        <ele>1240</ele>
      </trkpt>
      <trkpt lat="48.05474" lon="7.02239">
        <ele>1241.6</ele>
      </trkpt>
      <trkpt lat="48.05227" lon="7.02021">
        <ele>1231.2</ele>
      </trkpt>
      <trkpt lat="48.05186" lon="7.01972">
        <ele>1229.6</ele>
      </trkpt>
      <trkpt lat="48.05166" lon="7.01926">
        <ele>1227.6</ele>
      </trkpt>
      <trkpt lat="48.05185" lon="7.01611">
        <ele>1235.6</ele>
      </trkpt>
      <trkpt lat="48.04979" lon="7.01544">
        <ele>1244.1</ele>
      </trkpt>
      <trkpt lat="48.04774" lon="7.0141">
        <ele>1264.7</ele>
      </trkpt>
      <trkpt lat="48.04772" lon="7.01466">
        <ele>1263.5</ele>
      </trkpt>
      <trkpt lat="48.04724" lon="7.01525">
        <ele>1256.4</ele>
      </trkpt>
      <trkpt lat="48.04707" lon="7.01543">
        <ele>1250.1</ele>
      </trkpt>
      <trkpt lat="48.04706" lon="7.01566">
        <ele>1244.7</ele>
      </trkpt>
      <trkpt lat="48.04701" lon="7.01536">
        <ele>1250.5</ele>
      </trkpt>
      <trkpt lat="48.04689" lon="7.01511">
        <ele>1254.8</ele>
      </trkpt>
      <trkpt lat="48.04672" lon="7.0146">
        <ele>1262.4</ele>
      </trkpt>
      <trkpt lat="48.04631" lon="7.01422">
        <ele>1258.3</ele>
      </trkpt>
      <trkpt lat="48.04594" lon="7.01397">
        <ele>1254.8</ele>
      </trkpt>
      <trkpt lat="48.0452" lon="7.01293">
        <ele>1266.7</ele>
      </trkpt>
      <trkpt lat="48.04441" lon="7.01235">
        <ele>1275.8</ele>
      </trkpt>
      <trkpt lat="48.04422" lon="7.01206">
        <ele>1280.8</ele>
      </trkpt>
      <trkpt lat="48.04361" lon="7.0119">
        <ele>1283.7</ele>
      </trkpt>
      <trkpt lat="48.04336" lon="7.01195">
        <ele>1281.4</ele>
      </trkpt>
      <trkpt lat="48.04247" lon="7.01144">
        <ele>1287.4</ele>
      </trkpt>
      <trkpt lat="48.04171" lon="7.01107">
        <ele>1290.9</ele>
      </trkpt>
      <trkpt lat="48.04132" lon="7.0109">
        <ele>1292.6</ele>
      </trkpt>
      <trkpt lat="48.04005" lon="7.01326">
        <ele>1323.5</ele>
      </trkpt>
      <trkpt lat="48.03749" lon="7.01614">
        <ele>1346.8</ele>
      </trkpt>
      <trkpt lat="48.03716" lon="7.01479">
        <ele>1323.2</ele>
      </trkpt>
      <trkpt lat="48.03695" lon="7.01425">
        <ele>1315.1</ele>
      </trkpt>
      <trkpt lat="48.03705" lon="7.01371">
        <ele>1319.7</ele>
      </trkpt>
      <trkpt lat="48.03679" lon="7.01363">
        <ele>1313.7</ele>
      </trkpt>
      <trkpt lat="48.03686" lon="7.01337">
        <ele>1316.9</ele>
      </trkpt>
      <trkpt lat="48.03673" lon="7.01332">
        <ele>1314.9</ele>
      </trkpt>
      <trkpt lat="48.03682" lon="7.01282">
        <ele>1313</ele>
      </trkpt>
      <trkpt lat="48.03649" lon="7.01272">
        <ele>1305.8</ele>
      </trkpt>
      <trkpt lat="48.03641" lon="7.01243">
        <ele>1304</ele>
      </trkpt>
      <trkpt lat="48.03591" lon="7.01256">
        <ele>1293.7</ele>
      </trkpt>
      <trkpt lat="48.03586" lon="7.01267">
        <ele>1288.8</ele>
      </trkpt>
      <trkpt lat="48.03555" lon="7.01241">
        <ele>1280.5</ele>
      </trkpt>
      <trkpt lat="48.03551" lon="7.01194">
        <ele>1281.1</ele>
      </trkpt>
      <trkpt lat="48.03561" lon="7.01137">
        <ele>1281.8</ele>
      </trkpt>
      <trkpt lat="48.03523" lon="7.0114">
        <ele>1275.3</ele>
      </trkpt>
      <trkpt lat="48.03492" lon="7.01083">
        <ele>1271.7</ele>
      </trkpt>
      <trkpt lat="48.03484" lon="7.01048">
        <ele>1271.9</ele>
      </trkpt>
      <trkpt lat="48.03286" lon="7.00903">
        <ele>1298.9</ele>
      </trkpt>
      <trkpt lat="48.03007" lon="7.00798">
        <ele>1281.7</ele>
      </trkpt>
      <trkpt lat="48.02898" lon="7.00713">
        <ele>1279.7</ele>
      </trkpt>
      <trkpt lat="48.02773" lon="7.00593">
        <ele>1286.4</ele>
      </trkpt>
      <trkpt lat="48.02699" lon="7.00407">
        <ele>1293.7</ele>
      </trkpt>
      <trkpt lat="48.02649" lon="7.00131">
        <ele>1292.3</ele>
      </trkpt>
      <trkpt lat="48.02598" lon="7.00039">
        <ele>1293.6</ele>
      </trkpt>
      <trkpt lat="48.02495" lon="6.99954">
        <ele>1299.6</ele>
      </trkpt>
      <trkpt lat="48.02379" lon="6.9974">
        <ele>1296.4</ele>
      </trkpt>
      <trkpt lat="48.02278" lon="6.99533">
        <ele>1289.7</ele>
      </trkpt>
      <trkpt lat="48.02111" lon="6.99353">
        <ele>1280.6</ele>
      </trkpt>
      <trkpt lat="48.02062" lon="6.99333">
        <ele>1275.9</ele>
      </trkpt>
      <trkpt lat="48.02005" lon="6.99183">
        <ele>1273.4</ele>
      </trkpt>
      <trkpt lat="48.01987" lon="6.99162">
        <ele>1271.6</ele>
      </trkpt>
      <trkpt lat="48.01954" lon="6.99047">
        <ele>1264</ele>
      </trkpt>
      <trkpt lat="48.01825" lon="6.98931">
        <ele>1234.2</ele>
      </trkpt>
      <trkpt lat="48.01734" lon="6.98837">
        <ele>1211.1</ele>
      </trkpt>
      <trkpt lat="48.01686" lon="6.98771">
        <ele>1208.5</ele>
      </trkpt>
      <trkpt lat="48.0161" lon="6.9864">
        <ele>1194.9</ele>
      </trkpt>
      <trkpt lat="48.01608" lon="6.98632">
        <ele>1194.1</ele>
      </trkpt>
      <trkpt lat="48.01583" lon="6.98628">
        <ele>1193.7</ele>
      </trkpt>
      <trkpt lat="48.01498" lon="6.98566">
        <ele>1186.9</ele>
      </trkpt>
      <trkpt lat="48.01479" lon="6.98561">
        <ele>1188.5</ele>
      </trkpt>
      <trkpt lat="48.01464" lon="6.98566">
        <ele>1190.5</ele>
      </trkpt>
      <trkpt lat="48.01409" lon="6.98552">
        <ele>1196.1</ele>
      </trkpt>
      <trkpt lat="48.01334" lon="6.98514">
        <ele>1208.6</ele>
      </trkpt>
      <trkpt lat="48.01191" lon="6.98376">
        <ele>1227</ele>
      </trkpt>
      <trkpt lat="48.01172" lon="6.98337">
        <ele>1234.5</ele>
      </trkpt>
      <trkpt lat="48.01147" lon="6.98364">
        <ele>1233.4</ele>
      </trkpt>
      <trkpt lat="48.01141" lon="6.98318">
        <ele>1242.6</ele>
      </trkpt>
      <trkpt lat="48.01118" lon="6.98332">
        <ele>1246.7</ele>
      </trkpt>
      <trkpt lat="48.01113" lon="6.98293">
        <ele>1252.6</ele>
      </trkpt>
      <trkpt lat="48.01096" lon="6.9831">
        <ele>1255.2</ele>
      </trkpt>
      <trkpt lat="48.01087" lon="6.98279">
        <ele>1263.2</ele>
      </trkpt>
      <trkpt lat="48.01067" lon="6.98289">
        <ele>1268.7</ele>
      </trkpt>
      <trkpt lat="48.01025" lon="6.98287">
        <ele>1284.8</ele>
      </trkpt>
      <trkpt lat="48.00943" lon="6.9819">
        <ele>1289.2</ele>
      </trkpt>
      <trkpt lat="48.00552" lon="6.98014">
        <ele>1204.9</ele>
      </trkpt>
      <trkpt lat="48.00025" lon="6.97981">
        <ele>1295.1</ele>
      </trkpt>
      <trkpt lat="47.99921" lon="6.9806">
        <ele>1294</ele>
      </trkpt>
      <trkpt lat="47.99764" lon="6.98047">
        <ele>1283.2</ele>
      </trkpt>
      <trkpt lat="47.99555" lon="6.98122">
        <ele>1275.2</ele>
      </trkpt>
      <trkpt lat="47.99237" lon="6.9807">
        <ele>1272.6</ele>
      </trkpt>
      <trkpt lat="47.98789" lon="6.98024">
        <ele>1238.1</ele>
      </trkpt>
      <trkpt lat="47.98545" lon="6.98018">
        <ele>1221.4</ele>
      </trkpt>
      <trkpt lat="47.9845" lon="6.98162">
        <ele>1213.2</ele>
      </trkpt>
      <trkpt lat="47.98397" lon="6.9821">
        <ele>1214.5</ele>
      </trkpt>
      <trkpt lat="47.98366" lon="6.98253">
        <ele>1216.9</ele>
      </trkpt>
      <trkpt lat="47.98341" lon="6.98298">
        <ele>1216.6</ele>
      </trkpt>
    </trkseg>
  </trk>
  <trk>
    <name><![CDATA[Rando Vosges petit ballon - 3jours revisité_2]]></name>
    <extensions>
      <line xmlns="http://www.topografix.com/GPX/gpx_style/0/2">
        <color>ff3300</color>
        <width>4</width>
      </line>
    </extensions>
    <trkseg>
      <trkpt lat="48.04108" lon="7.13243">
        <ele>387.8</ele>
      </trkpt>
      <trkpt lat="48.04084" lon="7.13379">
        <ele>385.5</ele>
      </trkpt>
      <trkpt lat="48.04063" lon="7.13567">
        <ele>385</ele>
      </trkpt>
      <trkpt lat="48.041" lon="7.139">
        <ele>379.1</ele>
      </trkpt>
      <trkpt lat="48.0417" lon="7.14076">
        <ele>376.8</ele>
      </trkpt>
      <trkpt lat="48.04253" lon="7.14109">
        <ele>394.7</ele>
      </trkpt>
      <trkpt lat="48.04261" lon="7.14166">
        <ele>397.2</ele>
      </trkpt>
      <trkpt lat="48.04268" lon="7.14128">
        <ele>401.1</ele>
      </trkpt>
      <trkpt lat="48.04278" lon="7.14165">
        <ele>404.7</ele>
      </trkpt>
      <trkpt lat="48.04279" lon="7.14126">
        <ele>406.3</ele>
      </trkpt>
      <trkpt lat="48.04292" lon="7.14157">
        <ele>411.3</ele>
      </trkpt>
      <trkpt lat="48.04299" lon="7.14093">
        <ele>416.5</ele>
      </trkpt>
      <trkpt lat="48.04324" lon="7.14072">
        <ele>428.1</ele>
      </trkpt>
      <trkpt lat="48.04349" lon="7.13998">
        <ele>432.3</ele>
      </trkpt>
      <trkpt lat="48.04353" lon="7.14019">
        <ele>435.1</ele>
      </trkpt>
      <trkpt lat="48.04377" lon="7.13988">
        <ele>438.6</ele>
      </trkpt>
      <trkpt lat="48.04383" lon="7.14004">
        <ele>443.2</ele>
      </trkpt>
      <trkpt lat="48.04392" lon="7.14004">
        <ele>445.8</ele>
      </trkpt>
      <trkpt lat="48.04396" lon="7.14037">
        <ele>449.7</ele>
      </trkpt>
      <trkpt lat="48.04408" lon="7.14028">
        <ele>452.6</ele>
      </trkpt>
      <trkpt lat="48.04438" lon="7.14045">
        <ele>459.2</ele>
      </trkpt>
      <trkpt lat="48.04472" lon="7.14042">
        <ele>462.9</ele>
      </trkpt>
      <trkpt lat="48.04501" lon="7.14034">
        <ele>465.6</ele>
      </trkpt>
      <trkpt lat="48.0455" lon="7.14051">
        <ele>475.6</ele>
      </trkpt>
      <trkpt lat="48.04595" lon="7.14029">
        <ele>483.7</ele>
      </trkpt>
      <trkpt lat="48.04734" lon="7.13929">
        <ele>498.9</ele>
      </trkpt>
      <trkpt lat="48.04936" lon="7.13849">
        <ele>509.1</ele>
      </trkpt>
      <trkpt lat="48.05051" lon="7.13882">
        <ele>524.6</ele>
      </trkpt>
      <trkpt lat="48.05074" lon="7.13825">
        <ele>521.6</ele>
      </trkpt>
      <trkpt lat="48.05055" lon="7.13757">
        <ele>517.7</ele>
      </trkpt>
      <trkpt lat="48.05104" lon="7.13689">
        <ele>521.1</ele>
      </trkpt>
      <trkpt lat="48.05169" lon="7.13712">
        <ele>532.2</ele>
      </trkpt>
      <trkpt lat="48.05328" lon="7.13678">
        <ele>554.1</ele>
      </trkpt>
      <trkpt lat="48.0549" lon="7.13757">
        <ele>582.4</ele>
      </trkpt>
      <trkpt lat="48.05658" lon="7.13797">
        <ele>587.1</ele>
      </trkpt>
      <trkpt lat="48.05783" lon="7.14024">
        <ele>633.4</ele>
      </trkpt>
      <trkpt lat="48.05927" lon="7.14092">
        <ele>638.6</ele>
      </trkpt>
      <trkpt lat="48.06025" lon="7.14092">
        <ele>658.7</ele>
      </trkpt>
      <trkpt lat="48.06" lon="7.138">
        <ele>670</ele>
      </trkpt>
      <trkpt lat="48.06044" lon="7.1387">
        <ele>678.8</ele>
      </trkpt>
      <trkpt lat="48.06079" lon="7.14015">
        <ele>682.6</ele>
      </trkpt>
      <trkpt lat="48.0612" lon="7.14122">
        <ele>697.1</ele>
      </trkpt>
      <trkpt lat="48.06139" lon="7.14098">
        <ele>706.9</ele>
      </trkpt>
      <trkpt lat="48.06157" lon="7.14119">
        <ele>714.6</ele>
      </trkpt>
      <trkpt lat="48.06157" lon="7.14093">
        <ele>716.4</ele>
      </trkpt>
      <trkpt lat="48.06195" lon="7.14119">
        <ele>732.2</ele>
      </trkpt>
      <trkpt lat="48.0622" lon="7.14245">
        <ele>745</ele>
      </trkpt>
      <trkpt lat="48.06186" lon="7.14398">
        <ele>747.4</ele>
      </trkpt>
      <trkpt lat="48.06247" lon="7.14517">
        <ele>745.6</ele>
      </trkpt>
      <trkpt lat="48.06326" lon="7.14469">
        <ele>764.7</ele>
      </trkpt>
      <trkpt lat="48.06429" lon="7.14471">
        <ele>774</ele>
      </trkpt>
      <trkpt lat="48.06501" lon="7.14475">
        <ele>773.7</ele>
      </trkpt>
      <trkpt lat="48.06548" lon="7.14399">
        <ele>775.5</ele>
      </trkpt>
      <trkpt lat="48.06558" lon="7.14277">
        <ele>783</ele>
      </trkpt>
      <trkpt lat="48.06612" lon="7.14081">
        <ele>799.7</ele>
      </trkpt>
      <trkpt lat="48.06649" lon="7.13949">
        <ele>799.7</ele>
      </trkpt>
      <trkpt lat="48.0663" lon="7.13791">
        <ele>804.8</ele>
      </trkpt>
      <trkpt lat="48.06615" lon="7.13753">
        <ele>803.3</ele>
      </trkpt>
      <trkpt lat="48.06647" lon="7.13647">
        <ele>821.4</ele>
      </trkpt>
      <trkpt lat="48.06699" lon="7.13567">
        <ele>825.2</ele>
      </trkpt>
      <trkpt lat="48.06694" lon="7.13526">
        <ele>823.6</ele>
      </trkpt>
      <trkpt lat="48.06724" lon="7.13466">
        <ele>834.3</ele>
      </trkpt>
      <trkpt lat="48.06704" lon="7.13418">
        <ele>836.8</ele>
      </trkpt>
      <trkpt lat="48.06681" lon="7.13325">
        <ele>839.6</ele>
      </trkpt>
      <trkpt lat="48.06677" lon="7.13223">
        <ele>838.9</ele>
      </trkpt>
      <trkpt lat="48.06692" lon="7.13147">
        <ele>842.6</ele>
      </trkpt>
      <trkpt lat="48.06684" lon="7.13051">
        <ele>835.6</ele>
      </trkpt>
      <trkpt lat="48.0671" lon="7.12841">
        <ele>821.1</ele>
      </trkpt>
      <trkpt lat="48.06735" lon="7.12732">
        <ele>821.1</ele>
      </trkpt>
      <trkpt lat="48.06748" lon="7.12725">
        <ele>824.3</ele>
      </trkpt>
      <trkpt lat="48.06728" lon="7.12613">
        <ele>818.1</ele>
      </trkpt>
      <trkpt lat="48.06801" lon="7.1258">
        <ele>826.5</ele>
      </trkpt>
      <trkpt lat="48.06844" lon="7.12534">
        <ele>828.7</ele>
      </trkpt>
      <trkpt lat="48.07009" lon="7.127">
        <ele>844.9</ele>
      </trkpt>
      <trkpt lat="48.07248" lon="7.12759">
        <ele>865</ele>
      </trkpt>
      <trkpt lat="48.07411" lon="7.12726">
        <ele>883.3</ele>
      </trkpt>
      <trkpt lat="48.07635" lon="7.12808">
        <ele>912.7</ele>
      </trkpt>
      <trkpt lat="48.07802" lon="7.12878">
        <ele>940.5</ele>
      </trkpt>
      <trkpt lat="48.07852" lon="7.12806">
        <ele>945.8</ele>
      </trkpt>
      <trkpt lat="48.07895" lon="7.12618">
        <ele>943.2</ele>
      </trkpt>
      <trkpt lat="48.08032" lon="7.12536">
        <ele>936</ele>
      </trkpt>
      <trkpt lat="48.08052" lon="7.12478">
        <ele>938.3</ele>
      </trkpt>
      <trkpt lat="48.08035" lon="7.12312">
        <ele>941.1</ele>
      </trkpt>
      <trkpt lat="48.08115" lon="7.12182">
        <ele>942.6</ele>
      </trkpt>
      <trkpt lat="48.08235" lon="7.12083">
        <ele>945.6</ele>
      </trkpt>
      <trkpt lat="48.08338" lon="7.12039">
        <ele>941.3</ele>
      </trkpt>
      <trkpt lat="48.08451" lon="7.11878">
        <ele>925.8</ele>
      </trkpt>
      <trkpt lat="48.08604" lon="7.11795">
        <ele>910.4</ele>
      </trkpt>
      <trkpt lat="48.08656" lon="7.11713">
        <ele>900.9</ele>
      </trkpt>
      <trkpt lat="48.08696" lon="7.11725">
        <ele>896.5</ele>
      </trkpt>
      <trkpt lat="48.08795" lon="7.11595">
        <ele>889.4</ele>
      </trkpt>
      <trkpt lat="48.08912" lon="7.1134">
        <ele>909.4</ele>
      </trkpt>
      <trkpt lat="48.08916" lon="7.11246">
        <ele>916</ele>
      </trkpt>
      <trkpt lat="48.08862" lon="7.11183">
        <ele>908.2</ele>
      </trkpt>
      <trkpt lat="48.08831" lon="7.11093">
        <ele>913.6</ele>
      </trkpt>
      <trkpt lat="48.08839" lon="7.11041">
        <ele>918.6</ele>
      </trkpt>
      <trkpt lat="48.08849" lon="7.11018">
        <ele>921.1</ele>
      </trkpt>
      <trkpt lat="48.08854" lon="7.10891">
        <ele>925.2</ele>
      </trkpt>
      <trkpt lat="48.08839" lon="7.10742">
        <ele>918.3</ele>
      </trkpt>
      <trkpt lat="48.08898" lon="7.10652">
        <ele>917</ele>
      </trkpt>
      <trkpt lat="48.09002" lon="7.10572">
        <ele>915.7</ele>
      </trkpt>
      <trkpt lat="48.08835" lon="7.10531">
        <ele>899.2</ele>
      </trkpt>
      <trkpt lat="48.09224" lon="7.10272">
        <ele>875.9</ele>
      </trkpt>
      <trkpt lat="48.09308" lon="7.10119">
        <ele>864.4</ele>
      </trkpt>
      <trkpt lat="48.09277" lon="7.09839">
        <ele>863.4</ele>
      </trkpt>
      <trkpt lat="48.09181" lon="7.09749">
        <ele>859.4</ele>
      </trkpt>
      <trkpt lat="48.09082" lon="7.09733">
        <ele>853.4</ele>
      </trkpt>
      <trkpt lat="48.08977" lon="7.0977">
        <ele>846</ele>
      </trkpt>
      <trkpt lat="48.08782" lon="7.09665">
        <ele>860.4</ele>
      </trkpt>
      <trkpt lat="48.08645" lon="7.09517">
        <ele>833.5</ele>
      </trkpt>
      <trkpt lat="48.08617" lon="7.09453">
        <ele>822.1</ele>
      </trkpt>
      <trkpt lat="48.08684" lon="7.09279">
        <ele>817.6</ele>
      </trkpt>
      <trkpt lat="48.08726" lon="7.09031">
        <ele>794.6</ele>
      </trkpt>
      <trkpt lat="48.08814" lon="7.08814">
        <ele>801.6</ele>
      </trkpt>
      <trkpt lat="48.09047" lon="7.08777">
        <ele>842.4</ele>
      </trkpt>
      <trkpt lat="48.09319" lon="7.08661">
        <ele>882.3</ele>
      </trkpt>
      <trkpt lat="48.09386" lon="7.0855">
        <ele>908.6</ele>
      </trkpt>
      <trkpt lat="48.0934" lon="7.08301">
        <ele>927.2</ele>
      </trkpt>
      <trkpt lat="48.09284" lon="7.08296">
        <ele>935</ele>
      </trkpt>
      <trkpt lat="48.08973" lon="7.08502">
        <ele>930.8</ele>
      </trkpt>
      <trkpt lat="48.08768" lon="7.08111">
        <ele>958.1</ele>
      </trkpt>
      <trkpt lat="48.08818" lon="7.07905">
        <ele>968.8</ele>
      </trkpt>
      <trkpt lat="48.08719" lon="7.07868">
        <ele>940.9</ele>
      </trkpt>
      <trkpt lat="48.08666" lon="7.079">
        <ele>927.9</ele>
      </trkpt>
      <trkpt lat="48.08578" lon="7.078">
        <ele>891</ele>
      </trkpt>
      <trkpt lat="48.08617" lon="7.07609">
        <ele>894.1</ele>
      </trkpt>
      <trkpt lat="48.08631" lon="7.07504">
        <ele>914.2</ele>
      </trkpt>
      <trkpt lat="48.08588" lon="7.07446">
        <ele>918.7</ele>
      </trkpt>
      <trkpt lat="48.08521" lon="7.07424">
        <ele>904.9</ele>
      </trkpt>
      <trkpt lat="48.08486" lon="7.0734">
        <ele>915.8</ele>
      </trkpt>
      <trkpt lat="48.08497" lon="7.07245">
        <ele>935.4</ele>
      </trkpt>
      <trkpt lat="48.08553" lon="7.07319">
        <ele>949.4</ele>
      </trkpt>
      <trkpt lat="48.08539" lon="7.07055">
        <ele>980.9</ele>
      </trkpt>
      <trkpt lat="48.08613" lon="7.06716">
        <ele>1030.5</ele>
      </trkpt>
      <trkpt lat="48.08638" lon="7.06547">
        <ele>1052</ele>
      </trkpt>
      <trkpt lat="48.08719" lon="7.06468">
        <ele>1061.3</ele>
      </trkpt>
      <trkpt lat="48.08708" lon="7.06376">
        <ele>1056.6</ele>
      </trkpt>
      <trkpt lat="48.08683" lon="7.06301">
        <ele>1062.6</ele>
        <time>2021-09-26T17:38:58Z</time>
      </trkpt>
    </trkseg>
  </trk>
  <trk>
    <name><![CDATA[Rando Vosges petit ballon - 3jours revisité_3]]></name>
    <extensions>
      <line xmlns="http://www.topografix.com/GPX/gpx_style/0/2">
        <color>00ffbf</color>
        <width>4</width>
      </line>
    </extensions>
    <trkseg>
      <trkpt lat="47.98356" lon="6.98264">
        <ele>1217</ele>
        <time>2021-09-27T00:45:09Z</time>
      </trkpt>
      <trkpt lat="47.98305" lon="6.9833">
        <ele>1215</ele>
        <time>2021-09-27T00:46:39Z</time>
      </trkpt>
      <trkpt lat="47.98185" lon="6.98351">
        <ele>1206</ele>
        <time>2021-09-27T00:49:21Z</time>
      </trkpt>
      <trkpt lat="47.98107" lon="6.98387">
        <ele>1196</ele>
        <time>2021-09-27T00:51:10Z</time>
      </trkpt>
      <trkpt lat="47.97928" lon="6.98545">
        <ele>1188</ele>
        <time>2021-09-27T00:55:47Z</time>
      </trkpt>
      <trkpt lat="47.97826" lon="6.98601">
        <ele>1201</ele>
        <time>2021-09-27T00:58:12Z</time>
      </trkpt>
      <trkpt lat="47.97757" lon="6.98671">
        <ele>1211</ele>
        <time>2021-09-27T01:00:03Z</time>
      </trkpt>
      <trkpt lat="47.97682" lon="6.98753">
        <ele>1226</ele>
        <time>2021-09-27T01:02:07Z</time>
      </trkpt>
      <trkpt lat="47.97614" lon="6.98829">
        <ele>1240</ele>
        <time>2021-09-27T01:04:01Z</time>
      </trkpt>
      <trkpt lat="47.97491" lon="6.99021">
        <ele>1264</ele>
        <time>2021-09-27T01:07:58Z</time>
      </trkpt>
      <trkpt lat="47.97426" lon="6.99052">
        <ele>1260</ele>
        <time>2021-09-27T01:09:29Z</time>
      </trkpt>
      <trkpt lat="47.9734" lon="6.99105">
        <ele>1259</ele>
        <time>2021-09-27T01:11:33Z</time>
      </trkpt>
      <trkpt lat="47.97138" lon="6.99136">
        <ele>1242</ele>
        <time>2021-09-27T01:16:04Z</time>
      </trkpt>
      <trkpt lat="47.97084" lon="6.99151">
        <ele>1240</ele>
        <time>2021-09-27T01:17:18Z</time>
      </trkpt>
      <trkpt lat="47.97022" lon="6.99197">
        <ele>1238</ele>
        <time>2021-09-27T01:18:50Z</time>
      </trkpt>
      <trkpt lat="47.96928" lon="6.99239">
        <ele>1234</ele>
        <time>2021-09-27T01:21:01Z</time>
      </trkpt>
      <trkpt lat="47.9687" lon="6.99295">
        <ele>1222</ele>
        <time>2021-09-27T01:22:33Z</time>
      </trkpt>
      <trkpt lat="47.96812" lon="6.99464">
        <ele>1198</ele>
        <time>2021-09-27T01:25:23Z</time>
      </trkpt>
      <trkpt lat="47.96743" lon="6.99535">
        <ele>1192</ele>
        <time>2021-09-27T01:27:15Z</time>
      </trkpt>
      <trkpt lat="47.96665" lon="6.99581">
        <ele>1195</ele>
        <time>2021-09-27T01:29:06Z</time>
      </trkpt>
      <trkpt lat="47.96591" lon="6.99649">
        <ele>1199</ele>
        <time>2021-09-27T01:31:02Z</time>
      </trkpt>
      <trkpt lat="47.96437" lon="6.9971">
        <ele>1209</ele>
        <time>2021-09-27T01:34:35Z</time>
      </trkpt>
      <trkpt lat="47.96294" lon="6.99797">
        <ele>1215</ele>
        <time>2021-09-27T01:38:01Z</time>
      </trkpt>
      <trkpt lat="47.96263" lon="6.99853">
        <ele>1217</ele>
        <time>2021-09-27T01:39:06Z</time>
      </trkpt>
      <trkpt lat="47.96215" lon="7.00012">
        <ele>1218</ele>
        <time>2021-09-27T01:41:42Z</time>
      </trkpt>
      <trkpt lat="47.96174" lon="7.00181">
        <ele>1222</ele>
        <time>2021-09-27T01:44:22Z</time>
      </trkpt>
      <trkpt lat="47.96072" lon="7.00293">
        <ele>1216</ele>
        <time>2021-09-27T01:47:11Z</time>
      </trkpt>
      <trkpt lat="47.95979" lon="7.00426">
        <ele>1206</ele>
        <time>2021-09-27T01:50:03Z</time>
      </trkpt>
      <trkpt lat="47.95924" lon="7.00472">
        <ele>1202</ele>
        <time>2021-09-27T01:51:27Z</time>
      </trkpt>
      <trkpt lat="47.95852" lon="7.00487">
        <ele>1203</ele>
        <time>2021-09-27T01:53:04Z</time>
      </trkpt>
      <trkpt lat="47.9575" lon="7.00523">
        <ele>1199</ele>
        <time>2021-09-27T01:55:24Z</time>
      </trkpt>
      <trkpt lat="47.95678" lon="7.00584">
        <ele>1198</ele>
        <time>2021-09-27T01:57:15Z</time>
      </trkpt>
      <trkpt lat="47.95599" lon="7.0062">
        <ele>1200</ele>
        <time>2021-09-27T01:59:05Z</time>
      </trkpt>
      <trkpt lat="47.95555" lon="7.00676">
        <ele>1200</ele>
        <time>2021-09-27T02:00:22Z</time>
      </trkpt>
      <trkpt lat="47.95494" lon="7.0086">
        <ele>1194</ele>
        <time>2021-09-27T02:03:26Z</time>
      </trkpt>
      <trkpt lat="47.9548" lon="7.01054">
        <ele>1192</ele>
        <time>2021-09-27T02:06:20Z</time>
      </trkpt>
      <trkpt lat="47.95408" lon="7.01329">
        <ele>1177</ele>
        <time>2021-09-27T02:10:44Z</time>
      </trkpt>
      <trkpt lat="47.95364" lon="7.01503">
        <ele>1175</ele>
        <time>2021-09-27T02:13:30Z</time>
      </trkpt>
      <trkpt lat="47.9535" lon="7.01631">
        <ele>1174</ele>
        <time>2021-09-27T02:15:26Z</time>
      </trkpt>
      <trkpt lat="47.95306" lon="7.01784">
        <ele>1165</ele>
        <time>2021-09-27T02:17:55Z</time>
      </trkpt>
      <trkpt lat="47.95231" lon="7.0185">
        <ele>1177</ele>
        <time>2021-09-27T02:19:51Z</time>
      </trkpt>
      <trkpt lat="47.95175" lon="7.01961">
        <ele>1184</ele>
        <time>2021-09-27T02:21:55Z</time>
      </trkpt>
      <trkpt lat="47.95201" lon="7.02087">
        <ele>1189</ele>
        <time>2021-09-27T02:23:53Z</time>
      </trkpt>
      <trkpt lat="47.95199" lon="7.02217">
        <ele>1197</ele>
        <time>2021-09-27T02:25:49Z</time>
      </trkpt>
      <trkpt lat="47.95175" lon="7.02399">
        <ele>1214</ele>
        <time>2021-09-27T02:28:35Z</time>
      </trkpt>
      <trkpt lat="47.95147" lon="7.02673">
        <ele>1238</ele>
        <time>2021-09-27T02:32:43Z</time>
      </trkpt>
      <trkpt lat="47.95128" lon="7.02829">
        <ele>1244</ele>
        <time>2021-09-27T02:35:04Z</time>
      </trkpt>
      <trkpt lat="47.95142" lon="7.03058">
        <ele>1251</ele>
        <time>2021-09-27T02:38:30Z</time>
      </trkpt>
      <trkpt lat="47.95162" lon="7.03257">
        <ele>1252</ele>
        <time>2021-09-27T02:41:30Z</time>
      </trkpt>
      <trkpt lat="47.95189" lon="7.03355">
        <ele>1248</ele>
        <time>2021-09-27T02:43:05Z</time>
      </trkpt>
      <trkpt lat="47.95159" lon="7.03516">
        <ele>1249</ele>
        <time>2021-09-27T02:45:34Z</time>
      </trkpt>
      <trkpt lat="47.95084" lon="7.03697">
        <ele>1245</ele>
        <time>2021-09-27T02:48:44Z</time>
      </trkpt>
      <trkpt lat="47.9501" lon="7.03804">
        <ele>1243</ele>
        <time>2021-09-27T02:51:02Z</time>
      </trkpt>
      <trkpt lat="47.94962" lon="7.03939">
        <ele>1240</ele>
        <time>2021-09-27T02:53:18Z</time>
      </trkpt>
      <trkpt lat="47.94935" lon="7.03992">
        <ele>1235</ele>
        <time>2021-09-27T02:54:18Z</time>
      </trkpt>
      <trkpt lat="47.94919" lon="7.04026">
        <ele>1233</ele>
        <time>2021-09-27T02:54:55Z</time>
      </trkpt>
      <trkpt lat="47.94871" lon="7.04235">
        <ele>1221</ele>
        <time>2021-09-27T02:58:12Z</time>
      </trkpt>
      <trkpt lat="47.94833" lon="7.04439">
        <ele>1211</ele>
        <time>2021-09-27T03:01:22Z</time>
      </trkpt>
      <trkpt lat="47.9477" lon="7.04531">
        <ele>1203</ele>
        <time>2021-09-27T03:03:19Z</time>
      </trkpt>
      <trkpt lat="47.94689" lon="7.04653">
        <ele>1207</ele>
        <time>2021-09-27T03:05:53Z</time>
      </trkpt>
      <trkpt lat="47.94624" lon="7.04749">
        <ele>1212</ele>
        <time>2021-09-27T03:07:55Z</time>
      </trkpt>
      <trkpt lat="47.94576" lon="7.04898">
        <ele>1218</ele>
        <time>2021-09-27T03:10:23Z</time>
      </trkpt>
      <trkpt lat="47.94569" lon="7.04987">
        <ele>1223</ele>
        <time>2021-09-27T03:11:43Z</time>
      </trkpt>
      <trkpt lat="47.94571" lon="7.05072">
        <ele>1228</ele>
        <time>2021-09-27T03:12:59Z</time>
      </trkpt>
      <trkpt lat="47.94562" lon="7.05187">
        <ele>1232</ele>
        <time>2021-09-27T03:14:42Z</time>
      </trkpt>
      <trkpt lat="47.94544" lon="7.05285">
        <ele>1235</ele>
        <time>2021-09-27T03:16:13Z</time>
      </trkpt>
      <trkpt lat="47.9451" lon="7.05384">
        <ele>1234</ele>
        <time>2021-09-27T03:17:52Z</time>
      </trkpt>
      <trkpt lat="47.94479" lon="7.05494">
        <ele>1226</ele>
        <time>2021-09-27T03:19:39Z</time>
      </trkpt>
      <trkpt lat="47.94515" lon="7.05526">
        <ele>1223</ele>
        <time>2021-09-27T03:20:35Z</time>
      </trkpt>
      <trkpt lat="47.94564" lon="7.05528">
        <ele>1229</ele>
        <time>2021-09-27T03:21:40Z</time>
      </trkpt>
      <trkpt lat="47.94609" lon="7.05532">
        <ele>1235</ele>
        <time>2021-09-27T03:22:41Z</time>
      </trkpt>
      <trkpt lat="47.94661" lon="7.05559">
        <ele>1232</ele>
        <time>2021-09-27T03:23:54Z</time>
      </trkpt>
      <trkpt lat="47.94698" lon="7.05586">
        <ele>1228</ele>
        <time>2021-09-27T03:24:49Z</time>
      </trkpt>
      <trkpt lat="47.94736" lon="7.05607">
        <ele>1232</ele>
        <time>2021-09-27T03:25:43Z</time>
      </trkpt>
      <trkpt lat="47.94779" lon="7.05639">
        <ele>1239</ele>
        <time>2021-09-27T03:26:47Z</time>
      </trkpt>
      <trkpt lat="47.94792" lon="7.05687">
        <ele>1234</ele>
        <time>2021-09-27T03:27:34Z</time>
      </trkpt>
      <trkpt lat="47.94802" lon="7.05745">
        <ele>1230</ele>
        <time>2021-09-27T03:28:27Z</time>
      </trkpt>
      <trkpt lat="47.94794" lon="7.05795">
        <ele>1222</ele>
        <time>2021-09-27T03:29:13Z</time>
      </trkpt>
      <trkpt lat="47.94808" lon="7.05864">
        <ele>1225</ele>
        <time>2021-09-27T03:30:17Z</time>
      </trkpt>
      <trkpt lat="47.94806" lon="7.05942">
        <ele>1221</ele>
        <time>2021-09-27T03:31:27Z</time>
      </trkpt>
      <trkpt lat="47.94809" lon="7.06027">
        <ele>1219</ele>
        <time>2021-09-27T03:32:43Z</time>
      </trkpt>
      <trkpt lat="47.94816" lon="7.06089">
        <ele>1220</ele>
        <time>2021-09-27T03:33:39Z</time>
      </trkpt>
      <trkpt lat="47.94816" lon="7.06143">
        <ele>1214</ele>
        <time>2021-09-27T03:34:28Z</time>
      </trkpt>
      <trkpt lat="47.94838" lon="7.06201">
        <ele>1217</ele>
        <time>2021-09-27T03:35:27Z</time>
      </trkpt>
      <trkpt lat="47.94874" lon="7.06264">
        <ele>1216</ele>
        <time>2021-09-27T03:36:41Z</time>
      </trkpt>
      <trkpt lat="47.94902" lon="7.06301">
        <ele>1213</ele>
        <time>2021-09-27T03:37:31Z</time>
      </trkpt>
      <trkpt lat="47.94961" lon="7.06334">
        <ele>1217</ele>
        <time>2021-09-27T03:38:55Z</time>
      </trkpt>
      <trkpt lat="47.95007" lon="7.0643">
        <ele>1203</ele>
        <time>2021-09-27T03:40:41Z</time>
      </trkpt>
      <trkpt lat="47.95031" lon="7.0649">
        <ele>1192</ele>
        <time>2021-09-27T03:41:43Z</time>
      </trkpt>
      <trkpt lat="47.95024" lon="7.06561">
        <ele>1194</ele>
        <time>2021-09-27T03:42:47Z</time>
      </trkpt>
      <trkpt lat="47.95009" lon="7.06659">
        <ele>1201</ele>
        <time>2021-09-27T03:44:17Z</time>
      </trkpt>
      <trkpt lat="47.94995" lon="7.06746">
        <ele>1209</ele>
        <time>2021-09-27T03:45:37Z</time>
      </trkpt>
      <trkpt lat="47.94979" lon="7.06812">
        <ele>1212</ele>
        <time>2021-09-27T03:46:40Z</time>
      </trkpt>
      <trkpt lat="47.94964" lon="7.06857">
        <ele>1213</ele>
        <time>2021-09-27T03:47:25Z</time>
      </trkpt>
      <trkpt lat="47.94942" lon="7.06929">
        <ele>1214</ele>
        <time>2021-09-27T03:48:36Z</time>
      </trkpt>
      <trkpt lat="47.9492" lon="7.06974">
        <ele>1212</ele>
        <time>2021-09-27T03:49:25Z</time>
      </trkpt>
      <trkpt lat="47.949" lon="7.07042">
        <ele>1208</ele>
        <time>2021-09-27T03:50:32Z</time>
      </trkpt>
      <trkpt lat="47.94912" lon="7.07114">
        <ele>1211</ele>
        <time>2021-09-27T03:51:38Z</time>
      </trkpt>
      <trkpt lat="47.94943" lon="7.07174">
        <ele>1216</ele>
        <time>2021-09-27T03:52:46Z</time>
      </trkpt>
      <trkpt lat="47.94986" lon="7.07252">
        <ele>1221</ele>
        <time>2021-09-27T03:54:16Z</time>
      </trkpt>
      <trkpt lat="47.95025" lon="7.07293">
        <ele>1222</ele>
        <time>2021-09-27T03:55:20Z</time>
      </trkpt>
      <trkpt lat="47.95094" lon="7.07316">
        <ele>1233</ele>
        <time>2021-09-27T03:56:54Z</time>
      </trkpt>
      <trkpt lat="47.95131" lon="7.07354">
        <ele>1232</ele>
        <time>2021-09-27T03:57:54Z</time>
      </trkpt>
      <trkpt lat="47.95165" lon="7.07412">
        <ele>1228</ele>
        <time>2021-09-27T03:59:03Z</time>
      </trkpt>
      <trkpt lat="47.95194" lon="7.07505">
        <ele>1225</ele>
        <time>2021-09-27T04:00:35Z</time>
      </trkpt>
      <trkpt lat="47.95205" lon="7.07558">
        <ele>1225</ele>
        <time>2021-09-27T04:01:24Z</time>
      </trkpt>
      <trkpt lat="47.95213" lon="7.07632">
        <ele>1224</ele>
        <time>2021-09-27T04:02:31Z</time>
      </trkpt>
      <trkpt lat="47.95209" lon="7.07693">
        <ele>1220</ele>
        <time>2021-09-27T04:03:26Z</time>
      </trkpt>
      <trkpt lat="47.95209" lon="7.07785">
        <ele>1217</ele>
        <time>2021-09-27T04:04:48Z</time>
      </trkpt>
      <trkpt lat="47.95213" lon="7.07849">
        <ele>1214</ele>
        <time>2021-09-27T04:05:46Z</time>
      </trkpt>
      <trkpt lat="47.95258" lon="7.07896">
        <ele>1225</ele>
        <time>2021-09-27T04:06:59Z</time>
      </trkpt>
      <trkpt lat="47.95307" lon="7.07953">
        <ele>1233</ele>
        <time>2021-09-27T04:08:22Z</time>
      </trkpt>
      <trkpt lat="47.95344" lon="7.08007">
        <ele>1241</ele>
        <time>2021-09-27T04:09:31Z</time>
      </trkpt>
      <trkpt lat="47.95378" lon="7.08079">
        <ele>1251</ele>
        <time>2021-09-27T04:10:50Z</time>
      </trkpt>
      <trkpt lat="47.95395" lon="7.08148">
        <ele>1256</ele>
        <time>2021-09-27T04:11:55Z</time>
      </trkpt>
      <trkpt lat="47.95414" lon="7.08293">
        <ele>1257</ele>
        <time>2021-09-27T04:14:07Z</time>
      </trkpt>
      <trkpt lat="47.95431" lon="7.0838">
        <ele>1253</ele>
        <time>2021-09-27T04:15:28Z</time>
      </trkpt>
      <trkpt lat="47.95477" lon="7.08408">
        <ele>1254</ele>
        <time>2021-09-27T04:16:35Z</time>
      </trkpt>
      <trkpt lat="47.95528" lon="7.08366">
        <ele>1260</ele>
        <time>2021-09-27T04:17:52Z</time>
      </trkpt>
      <trkpt lat="47.95578" lon="7.08296">
        <ele>1265</ele>
        <time>2021-09-27T04:19:24Z</time>
      </trkpt>
      <trkpt lat="47.95629" lon="7.08278">
        <ele>1265</ele>
        <time>2021-09-27T04:20:34Z</time>
      </trkpt>
      <trkpt lat="47.95705" lon="7.0827">
        <ele>1264</ele>
        <time>2021-09-27T04:22:16Z</time>
      </trkpt>
      <trkpt lat="47.9578" lon="7.08259">
        <ele>1263</ele>
        <time>2021-09-27T04:23:56Z</time>
      </trkpt>
      <trkpt lat="47.9589" lon="7.08282">
        <ele>1255</ele>
        <time>2021-09-27T04:26:24Z</time>
      </trkpt>
      <trkpt lat="47.96108" lon="7.08351">
        <ele>1247</ele>
        <time>2021-09-27T04:31:22Z</time>
      </trkpt>
      <trkpt lat="47.96188" lon="7.08419">
        <ele>1246</ele>
        <time>2021-09-27T04:33:25Z</time>
      </trkpt>
      <trkpt lat="47.96262" lon="7.08566">
        <ele>1251</ele>
        <time>2021-09-27T04:36:09Z</time>
      </trkpt>
      <trkpt lat="47.96303" lon="7.08671">
        <ele>1246</ele>
        <time>2021-09-27T04:37:57Z</time>
      </trkpt>
      <trkpt lat="47.96388" lon="7.0877">
        <ele>1243</ele>
        <time>2021-09-27T04:40:21Z</time>
      </trkpt>
      <trkpt lat="47.9644" lon="7.0885">
        <ele>1236</ele>
        <time>2021-09-27T04:42:01Z</time>
      </trkpt>
      <trkpt lat="47.96528" lon="7.0893">
        <ele>1222</ele>
        <time>2021-09-27T04:44:18Z</time>
      </trkpt>
      <trkpt lat="47.9659" lon="7.0907">
        <ele>1206</ele>
        <time>2021-09-27T04:46:48Z</time>
      </trkpt>
      <trkpt lat="47.96658" lon="7.09257">
        <ele>1177</ele>
        <time>2021-09-27T04:49:59Z</time>
      </trkpt>
      <trkpt lat="47.96675" lon="7.09331">
        <ele>1171</ele>
        <time>2021-09-27T04:51:08Z</time>
      </trkpt>
      <trkpt lat="47.96789" lon="7.09483">
        <ele>1153</ele>
        <time>2021-09-27T04:54:32Z</time>
      </trkpt>
      <trkpt lat="47.96919" lon="7.09756">
        <ele>1122</ele>
        <time>2021-09-27T04:59:32Z</time>
      </trkpt>
      <trkpt lat="47.97051" lon="7.10013">
        <ele>1125</ele>
        <time>2021-09-27T05:04:21Z</time>
      </trkpt>
      <trkpt lat="47.97207" lon="7.10438">
        <ele>1176</ele>
        <time>2021-09-27T05:11:34Z</time>
      </trkpt>
      <trkpt lat="47.97261" lon="7.10454">
        <ele>1191</ele>
        <time>2021-09-27T05:12:48Z</time>
      </trkpt>
      <trkpt lat="47.97277" lon="7.10432">
        <ele>1190</ele>
        <time>2021-09-27T05:13:17Z</time>
      </trkpt>
      <trkpt lat="47.97322" lon="7.10426">
        <ele>1195</ele>
        <time>2021-09-27T05:14:17Z</time>
      </trkpt>
      <trkpt lat="47.97412" lon="7.10499">
        <ele>1199</ele>
        <time>2021-09-27T05:16:34Z</time>
      </trkpt>
      <trkpt lat="47.97636" lon="7.10647">
        <ele>1197</ele>
        <time>2021-09-27T05:22:00Z</time>
      </trkpt>
      <trkpt lat="47.97697" lon="7.10768">
        <ele>1194</ele>
        <time>2021-09-27T05:24:16Z</time>
      </trkpt>
      <trkpt lat="47.97787" lon="7.1105">
        <ele>1190</ele>
        <time>2021-09-27T05:28:55Z</time>
      </trkpt>
      <trkpt lat="47.97842" lon="7.11194">
        <ele>1185</ele>
        <time>2021-09-27T05:31:23Z</time>
      </trkpt>
      <trkpt lat="47.97885" lon="7.11366">
        <ele>1184</ele>
        <time>2021-09-27T05:34:07Z</time>
      </trkpt>
      <trkpt lat="47.97896" lon="7.11515">
        <ele>1193</ele>
        <time>2021-09-27T05:36:21Z</time>
      </trkpt>
      <trkpt lat="47.97875" lon="7.11677">
        <ele>1198</ele>
        <time>2021-09-27T05:38:48Z</time>
      </trkpt>
      <trkpt lat="47.97853" lon="7.11793">
        <ele>1198</ele>
        <time>2021-09-27T05:40:36Z</time>
      </trkpt>
      <trkpt lat="47.97872" lon="7.11897">
        <ele>1199</ele>
        <time>2021-09-27T05:42:12Z</time>
      </trkpt>
      <trkpt lat="47.97933" lon="7.12008">
        <ele>1198</ele>
        <time>2021-09-27T05:44:21Z</time>
      </trkpt>
      <trkpt lat="47.98002" lon="7.12174">
        <ele>1201</ele>
        <time>2021-09-27T05:47:15Z</time>
      </trkpt>
      <trkpt lat="47.98027" lon="7.12331">
        <ele>1221</ele>
        <time>2021-09-27T05:49:39Z</time>
      </trkpt>
      <trkpt lat="47.98065" lon="7.1258">
        <ele>1261</ele>
        <time>2021-09-27T05:53:27Z</time>
      </trkpt>
      <trkpt lat="47.9808" lon="7.12726">
        <ele>1257</ele>
        <time>2021-09-27T05:55:39Z</time>
      </trkpt>
      <trkpt lat="47.98098" lon="7.12881">
        <ele>1239</ele>
        <time>2021-09-27T05:58:00Z</time>
      </trkpt>
      <trkpt lat="47.98164" lon="7.12907">
        <ele>1225</ele>
        <time>2021-09-27T05:59:31Z</time>
      </trkpt>
      <trkpt lat="47.98267" lon="7.12899">
        <ele>1211</ele>
        <time>2021-09-27T06:01:49Z</time>
      </trkpt>
      <trkpt lat="47.98395" lon="7.12993">
        <ele>1188</ele>
        <time>2021-09-27T06:04:59Z</time>
      </trkpt>
      <trkpt lat="47.98565" lon="7.13017">
        <ele>1156</ele>
        <time>2021-09-27T06:08:47Z</time>
      </trkpt>
      <trkpt lat="47.9857" lon="7.12978">
        <ele>1156</ele>
        <time>2021-09-27T06:09:22Z</time>
      </trkpt>
      <trkpt lat="47.98574" lon="7.12932">
        <ele>1154</ele>
        <time>2021-09-27T06:10:04Z</time>
      </trkpt>
      <trkpt lat="47.98581" lon="7.12859">
        <ele>1148</ele>
        <time>2021-09-27T06:11:10Z</time>
      </trkpt>
      <trkpt lat="47.98583" lon="7.12806">
        <ele>1144</ele>
        <time>2021-09-27T06:11:57Z</time>
      </trkpt>
      <trkpt lat="47.98585" lon="7.1276">
        <ele>1142</ele>
        <time>2021-09-27T06:12:38Z</time>
      </trkpt>
      <trkpt lat="47.98632" lon="7.12629">
        <ele>1120</ele>
        <time>2021-09-27T06:14:51Z</time>
      </trkpt>
      <trkpt lat="47.9869" lon="7.12546">
        <ele>1106</ele>
        <time>2021-09-27T06:16:38Z</time>
      </trkpt>
      <trkpt lat="47.9887" lon="7.1246">
        <ele>1075</ele>
        <time>2021-09-27T06:20:50Z</time>
      </trkpt>
      <trkpt lat="47.98844" lon="7.12656">
        <ele>1058</ele>
        <time>2021-09-27T06:23:49Z</time>
      </trkpt>
      <trkpt lat="47.98995" lon="7.12795">
        <ele>1040</ele>
        <time>2021-09-27T06:27:45Z</time>
      </trkpt>
      <trkpt lat="47.9909" lon="7.12888">
        <ele>1025</ele>
        <time>2021-09-27T06:30:17Z</time>
      </trkpt>
      <trkpt lat="47.99214" lon="7.13025">
        <ele>1015</ele>
        <time>2021-09-27T06:33:43Z</time>
      </trkpt>
      <trkpt lat="47.99231" lon="7.13112">
        <ele>1009</ele>
        <time>2021-09-27T06:35:04Z</time>
      </trkpt>
      <trkpt lat="47.9956" lon="7.13238">
        <ele>1003</ele>
        <time>2021-09-27T06:42:37Z</time>
      </trkpt>
      <trkpt lat="47.99633" lon="7.13253">
        <ele>1015</ele>
        <time>2021-09-27T06:44:15Z</time>
      </trkpt>
      <trkpt lat="47.99683" lon="7.1334">
        <ele>1008</ele>
        <time>2021-09-27T06:45:58Z</time>
      </trkpt>
      <trkpt lat="47.99725" lon="7.13345">
        <ele>1009</ele>
        <time>2021-09-27T06:46:54Z</time>
      </trkpt>
      <trkpt lat="47.99795" lon="7.13369">
        <ele>998</ele>
        <time>2021-09-27T06:48:30Z</time>
      </trkpt>
      <trkpt lat="47.99876" lon="7.13442">
        <ele>983</ele>
        <time>2021-09-27T06:50:36Z</time>
      </trkpt>
      <trkpt lat="47.99993" lon="7.13549">
        <ele>980</ele>
        <time>2021-09-27T06:53:39Z</time>
      </trkpt>
      <trkpt lat="48.0015" lon="7.13675">
        <ele>960</ele>
        <time>2021-09-27T06:57:37Z</time>
      </trkpt>
      <trkpt lat="48.00252" lon="7.13731">
        <ele>946</ele>
        <time>2021-09-27T07:00:02Z</time>
      </trkpt>
      <trkpt lat="48.00514" lon="7.138">
        <ele>912</ele>
        <time>2021-09-27T07:05:57Z</time>
      </trkpt>
      <trkpt lat="48.00607" lon="7.13835">
        <ele>912</ele>
        <time>2021-09-27T07:08:05Z</time>
      </trkpt>
      <trkpt lat="48.00713" lon="7.13819">
        <ele>900</ele>
        <time>2021-09-27T07:10:27Z</time>
      </trkpt>
      <trkpt lat="48.00822" lon="7.13717">
        <ele>893</ele>
        <time>2021-09-27T07:13:19Z</time>
      </trkpt>
      <trkpt lat="48.00949" lon="7.13732">
        <ele>879</ele>
        <time>2021-09-27T07:16:09Z</time>
      </trkpt>
      <trkpt lat="48.00928" lon="7.13814">
        <ele>871</ele>
        <time>2021-09-27T07:17:27Z</time>
      </trkpt>
      <trkpt lat="48.01102" lon="7.1386">
        <ele>852</ele>
        <time>2021-09-27T07:21:23Z</time>
      </trkpt>
      <trkpt lat="48.01225" lon="7.13937">
        <ele>819</ele>
        <time>2021-09-27T07:24:21Z</time>
      </trkpt>
      <trkpt lat="48.01308" lon="7.14013">
        <ele>796</ele>
        <time>2021-09-27T07:26:31Z</time>
      </trkpt>
      <trkpt lat="48.01387" lon="7.14013">
        <ele>788</ele>
        <time>2021-09-27T07:28:16Z</time>
      </trkpt>
      <trkpt lat="48.01479" lon="7.13997">
        <ele>772</ele>
        <time>2021-09-27T07:30:20Z</time>
      </trkpt>
      <trkpt lat="48.01527" lon="7.13901">
        <ele>770</ele>
        <time>2021-09-27T07:32:07Z</time>
      </trkpt>
      <trkpt lat="48.01609" lon="7.13819">
        <ele>764</ele>
        <time>2021-09-27T07:34:18Z</time>
      </trkpt>
      <trkpt lat="48.01738" lon="7.13793">
        <ele>765</ele>
        <time>2021-09-27T07:37:12Z</time>
      </trkpt>
      <trkpt lat="48.01817" lon="7.13737">
        <ele>764</ele>
        <time>2021-09-27T07:39:09Z</time>
      </trkpt>
      <trkpt lat="48.01933" lon="7.13707">
        <ele>756</ele>
        <time>2021-09-27T07:41:46Z</time>
      </trkpt>
      <trkpt lat="48.0209" lon="7.13769">
        <ele>736</ele>
        <time>2021-09-27T07:45:22Z</time>
      </trkpt>
      <trkpt lat="48.02162" lon="7.138">
        <ele>733</ele>
        <time>2021-09-27T07:47:02Z</time>
      </trkpt>
      <trkpt lat="48.02208" lon="7.13811">
        <ele>728</ele>
        <time>2021-09-27T07:48:05Z</time>
      </trkpt>
      <trkpt lat="48.02216" lon="7.13872">
        <ele>718</ele>
        <time>2021-09-27T07:49:00Z</time>
      </trkpt>
      <trkpt lat="48.02228" lon="7.13901">
        <ele>713</ele>
        <time>2021-09-27T07:49:30Z</time>
      </trkpt>
      <trkpt lat="48.02278" lon="7.13804">
        <ele>716</ele>
        <time>2021-09-27T07:51:20Z</time>
      </trkpt>
      <trkpt lat="48.02353" lon="7.13721">
        <ele>705</ele>
        <time>2021-09-27T07:53:24Z</time>
      </trkpt>
      <trkpt lat="48.02457" lon="7.13594">
        <ele>697</ele>
        <time>2021-09-27T07:56:24Z</time>
      </trkpt>
      <trkpt lat="48.02517" lon="7.13533">
        <ele>694</ele>
        <time>2021-09-27T07:58:00Z</time>
      </trkpt>
      <trkpt lat="48.02597" lon="7.13432">
        <ele>684</ele>
        <time>2021-09-27T08:00:20Z</time>
      </trkpt>
      <trkpt lat="48.02662" lon="7.13356">
        <ele>673</ele>
        <time>2021-09-27T08:02:10Z</time>
      </trkpt>
      <trkpt lat="48.0273" lon="7.13345">
        <ele>651</ele>
        <time>2021-09-27T08:03:41Z</time>
      </trkpt>
      <trkpt lat="48.02873" lon="7.13372">
        <ele>616</ele>
        <time>2021-09-27T08:06:54Z</time>
      </trkpt>
      <trkpt lat="48.03008" lon="7.13372">
        <ele>572</ele>
        <time>2021-09-27T08:09:54Z</time>
      </trkpt>
      <trkpt lat="48.03139" lon="7.133">
        <ele>521</ele>
        <time>2021-09-27T08:13:00Z</time>
      </trkpt>
      <trkpt lat="48.03296" lon="7.13293">
        <ele>464</ele>
        <time>2021-09-27T08:16:30Z</time>
      </trkpt>
      <trkpt lat="48.03333" lon="7.1331">
        <ele>449</ele>
        <time>2021-09-27T08:17:21Z</time>
      </trkpt>
      <trkpt lat="48.03389" lon="7.132">
        <ele>435</ele>
        <time>2021-09-27T08:19:25Z</time>
      </trkpt>
      <trkpt lat="48.03377" lon="7.13038">
        <ele>421</ele>
        <time>2021-09-27T08:21:50Z</time>
      </trkpt>
      <trkpt lat="48.03368" lon="7.12948">
        <ele>409</ele>
        <time>2021-09-27T08:23:11Z</time>
      </trkpt>
      <trkpt lat="48.03428" lon="7.13045">
        <ele>406</ele>
        <time>2021-09-27T08:25:09Z</time>
      </trkpt>
      <trkpt lat="48.03467" lon="7.13135">
        <ele>403</ele>
        <time>2021-09-27T08:26:45Z</time>
      </trkpt>
      <trkpt lat="48.03501" lon="7.13229">
        <ele>397</ele>
        <time>2021-09-27T08:28:20Z</time>
      </trkpt>
      <trkpt lat="48.03554" lon="7.13298">
        <ele>392</ele>
        <time>2021-09-27T08:29:54Z</time>
      </trkpt>
      <trkpt lat="48.03648" lon="7.13294">
        <ele>382</ele>
        <time>2021-09-27T08:32:00Z</time>
      </trkpt>
      <trkpt lat="48.03742" lon="7.13287">
        <ele>382</ele>
        <time>2021-09-27T08:34:05Z</time>
      </trkpt>
      <trkpt lat="48.04108" lon="7.13243">
        <ele>387.8</ele>
      </trkpt>
    </trkseg>
  </trk>
</gpx>